210  
ASUS41 KOKX 210005  
RWROKX  
 
REGIONAL WEATHER ROUNDUP  
NATIONAL WEATHER SERVICE NEW YORK NY  
800 PM EDT FRI APR 20 2018  
 
NOTE: "FAIR" INDICATES FEW OR NO CLOUDS BELOW 12,000 FEET WITH NO  
SIGNIFICANT WEATHER AND/OR S TO VISIBILITY
.  
 
NYZ071-072-176-178-NJZ106-104-210100-  
NEW YORK CITY METRO AREA  
 
CITY SKY/WX TMP DP RH WIND PRES REMARKS
 
CENTRAL PARK FAIR 44 22 41 NW8G18 30.33R  
BRONX BOT GARD N/A 43 23 45 NW3 30.31R  
BRONX LEHMAN C N/A 43 25 49 NW13 N/A  
LAGUARDIA ARPT FAIR 45 25 45 NW20G29 30.30R  
QUEENS COLLEGE N/A 43 25 49 NW15 N/A  
KENNEDY INTL FAIR 44 23 43 NW21 30.30R  
BREEZY POINT N/A 43 N/A N/A NW15G22 N/A  
BROOKLYN COLL N/A 45 23 42 NW20 N/A  
STATEN ISLAND N/A 45 25 45 N13 N/A  
NEWARK/LIBERTY FAIR 45 22 40 NW16G28 30.31R  
TETERBORO FAIR 44 24 45 NW17G26 30.30R  

 
 
NYZ177-179-078>081-210100-  
LONG ISLAND NEW YORK  
 
CITY SKY/WX TMP DP RH WIND PRES REMARKS
 
JONES BEACH N/A 45 N/A N/A NW23G29 N/A  
WANTAGH N/A 45 25 45 NW15G28 N/A  
HEMPSTEAD N/A 45 28 53 W7 30.32R  
MATINECOCK PT N/A 45 N/A N/A NW28G33 N/A  
FARMINGDALE FAIR 44 24 45 NW9G18 30.28R  
MACARTHUR/ISP FAIR 45 26 47 NW14 30.26R  
STONY BROOK N/A 45 32 61 N10 N/A  
SHIRLEY FAIR 45 29 53 N9 30.26R  
MT SINAI HARB N/A N/A N/A N/A N14 N/A  
WESTHAMPTON FAIR 45 25 45 NW10 30.25R  
EAST HAMPTON FAIR 45 29 54 NW8 30.22R  
SOUTHOLD N/A 45 32 61 NW14 N/A  
MONTAUK N/A 48 33 56 NW13 30.22R  

 
 
NYZ052-065-067-210100-  
HUDSON VALLEY  
 
CITY SKY/WX TMP DP RH WIND PRES REMARKS
 
WHITE PLAINS FAIR 41 23 48 NW17G25 30.27R  
LARCHMONT HARB N/A 43 N/A N/A NW16G24 N/A  
CROTON ON HUDS N/A 43 N/A N/A W14 N/A  
SOMERS N/A 39 25 56 NW9 N/A WCI 33  
BREWSTER N/A 39 25 56 N9 N/A WCI 33  
NEWBURGH PTCLDY 41 25 52 NW14 30.31R  
MONTGOMERY FAIR 41 23 48 NW13G20 30.31R  
OTISVILLE N/A 39 25 56 NW12 N/A WCI 32  
WARWICK N/A 39 25 56 NW12 N/A WCI 32  
SUFFERN N/A 39 23 52 NW10 N/A WCI 32  
POUGHKEEPSIE MOCLDY 41 22 46 NW12 30.31R  
ALBANY MOCLDY 40 24 53 W12 30.32R WCI 33  

 
 
NJZ001-105-106-008-010-013-015-019>022-104-210100-  
NEW JERSEY  
 
CITY SKY/WX TMP DP RH WIND PRES REMARKS
 
NEWARK/LIBERTY FAIR 45 22 40 NW16G28 30.31R  
TETERBORO FAIR 44 24 45 NW17G26 30.30R  
CALDWELL FAIR 42 22 44 NW7 30.32R  
SOMERVILLE FAIR 45 23 42 N12 30.30R  
LINDEN FAIR 44 21 40 N12G18 30.32R  
PERTH AMBOY N/A 45 N/A N/A NW16 N/A  
SUSSEX FAIR 41 23 48 N6G18 30.33R  
ANDOVER N/A 41 22 46 N10G18 30.32R  
TRENTON FAIR 45 23 42 N9G18 30.31R  
MILLVILLE FAIR 49 26 41 N7 30.29R  
ATLANTIC CITY FAIR 49 27 42 N9 30.28R  
WRIGHTSTOWN FAIR 45 25 46 N10 30.28R  
TOMS RIVER FAIR 46 25 43 NW14G21 30.30R  
BELMAR FAIR 45 23 42 NW16G23 30.31R  

 
 
PAZ047>061-062-071-210100-  
EASTERN PENNSYLVANIA  
 
CITY SKY/WX TMP DP RH WIND PRES REMARKS
 
PHILADELPHIA FAIR 49 23 36 N13 30.31R  
ALLENTOWN FAIR 44 24 45 N8 30.33R  
SCRANTON FAIR 40 24 53 N13 30.33R WCI 32  

 
 
CTZ002-004>006-009-010-012-RIZ004-006-007-MAZ004-011-015-210100-  
SOUTHERN NEW ENGLAND  
 
IN CT  
 
CITY SKY/WX TMP DP RH WIND PRES REMARKS
 
BRADLEY INTL MOCLDY 43 25 49 NW20G28 30.26R  
HARTFORD FAIR 44 25 47 NW14G22 30.26R  
DANBURY CLOUDY 42 23 46 N10G23 30.29R  
WTRBURY/OXFORD FAIR 39 24 55 N18G24 30.26R WCI 30  
NORWALK HARBOR N/A 45 N/A N/A NW15G21 N/A  
BRIDGEPORT FAIR 45 24 43 N15G24 30.27R  
MERIDEN FAIR 43 24 47 NW16 30.26R  
NEW HAVEN FAIR 45 24 43 N15G25 30.26R  
CHESTER FAIR 43 23 45 NW16G24 30.23R  
GROTON FAIR 47 25 42 NW13G22 30.21R  
WILLIMANTIC FAIR 46 26 45 NW13G22 30.23R  
 
IN RI  
 
CITY SKY/WX TMP DP RH WIND PRES REMARKS
 
PROVIDENCE MOCLDY 49 27 42 N20G25 30.20R  
BLOCK ISLAND FAIR 47 29 49 NW12G21 30.20R  
WESTERLY FAIR 49 27 42 W6 30.21R  
 
IN MA  
 
CITY SKY/WX TMP DP RH WIND PRES REMARKS
 
BOSTON FAIR 47 27 45 NW15G23 30.19R  
WORCESTER CLOUDY 42 24 49 N16G23 30.20R  
WESTFIELD CLOUDY 42 26 53 W14 30.26R  
PROVINCETOWN FAIR 44 35 70 NW12 30.17R  
NANTUCKET CLOUDY 46 35 65 W6 30.15R  

 
 
ANZ330-335-338-340-345-350-353-355-210100-  
COASTAL MARINE OBSERVATIONS  
 
 
STATION/POSITION TIME SKY/WX TEMP WIND PRES VSBY WAVE
 
AIR SEA DIR/SP/G HT/PER  
(UTC) (F) (DEG/KT/KT) (MB) (MI) (FT/S)  
NY HARB ENTRANCE 2350 45 44 320/ 19/ 23 1025.7 3/ 4  
20 S FIRE ISLAND 2350 45 42 310/ 16/ 19 1024.5 2/ 4  
23 SSW MONTAUK P 2350 45 42 280/ 14/ 16 1023.2 3/10  
15 E BARNEGAT LI 2330 45 N/A 2/10  
HUDSON CANYON 2350 44 44 280/ 10/ 14 1024.1 3/ 5  
KINGS POINT 2330 44 45 360/ 17/ 21 1026.4  
EXECUTION ROCKS NOT AVBL  
WESTERN LI SOUND NOT AVBL  
CENTRAL LI SOUND 2345 45 310/ 16/ 19 N/A 2  
ROBBINS REEF 2330 45 330/ 15/ 20 1026.3  

 
 
>>>>>>>>>>>>>>>>>>>>>>>>>>>> KEY <<<<<<<<<<<<<<<<<<<<<<<<<<<  
> <  
> SKY/WX - SKY CONDITION/PRESENT WEATHER <  
> TMP - TEMPERATURE IN FAHRENHEIT <  
> DP - DEW POINT IN FAHRENHEIT <  
> RH - RELATIVE HUMIDITY IN PERCENT <  
> WIND - DIRECTION (FROM) AND SPEED IN MPH <  
> PRES - MEAN SEA LEVEL PRESSURE (INCHES OF HG) <  
> WCI - WIND CHILL INDEX <  
> VSB - VISIBILITY IN MILES <  
> HX - HEAT INDEX <  
> TC - TEMPERATURE IN CELSIUS <  
> VRB - VARIBALE WIND DIRECTION <  
> <  
>>>>>>>>>>>>>>>>>>>>>>>>>>>> KEY <<<<<<<<<<<<<<<<<<<<<<<<<<<  
 
 
CLICK HERE TO GO TO PREVIOUS BULLETINS.

The Nexlab NY Page
The Nexlab NJ Page
The Nexlab CT Page Main Text Page